TimeEDT,TemperatureF,Dew PointF,Humidity,Sea Level PressureIn,VisibilityMPH,Wind Direction,Wind SpeedMPH,Gust SpeedMPH,PrecipitationIn,Events,Conditions,WindDirDegrees,DateUTC
12:14 AM,75.2,71.6,89,29.90,1.8,East,24.2,35.7,0.20,Rain,Heavy Rain,80,2011-10-09 04:14:00
12:20 AM,73.4,71.6,94,29.91,1.0,ENE,23.0,35.7,0.44,Rain,Heavy Rain,70,2011-10-09 04:20:00
12:34 AM,75.2,73.4,94,29.88,3.0,ENE,18.4,26.5,0.56,Rain,Rain,60,2011-10-09 04:34:00
12:45 AM,77.0,73.4,89,29.88,6.0,ENE,23.0,36.8,0.58,Rain,Rain,70,2011-10-09 04:45:00
12:53 AM,75.9,73.0,91,29.88,3.0,ENE,27.6,39.1,0.64,Rain,Heavy Rain,70,2011-10-09 04:53:00
1:15 AM,75.2,71.6,89,29.87,4.0,East,27.6,51.8,0.04,Rain,Rain,80,2011-10-09 05:15:00
1:28 AM,75.2,71.6,89,29.87,2.5,ENE,21.9,33.4,0.12,Rain,Heavy Rain,70,2011-10-09 05:28:00
1:37 AM,75.2,73.4,94,29.87,5.0,ENE,16.1,32.2,0.13,Rain,Light Rain,60,2011-10-09 05:37:00
1:53 AM,78.1,73.0,84,29.86,10.0,ENE,21.9,28.8,0.13,Rain,Light Rain,70,2011-10-09 05:53:00
2:14 AM,73.4,71.6,94,29.85,2.5,ENE,23.0,38.0,0.07,Rain,Rain,60,2011-10-09 06:14:00
2:21 AM,75.2,73.4,94,29.84,4.0,East,24.2,36.8,0.09,Rain,Rain,80,2011-10-09 06:21:00
2:45 AM,77.0,73.4,89,29.83,4.0,East,20.7,31.1,0.14,Rain,Rain,80,2011-10-09 06:45:00
2:53 AM,77.0,73.0,88,29.83,4.0,ENE,16.1,27.6,0.16,Rain,Light Rain,70,2011-10-09 06:53:00
3:02 AM,78.8,71.6,78,29.83,10.0,ENE,25.3,33.4,0.00,Rain,Light Rain,70,2011-10-09 07:02:00
3:53 AM,78.1,71.1,79,29.82,10.0,East,24.2,31.1,0.00,,Overcast,90,2011-10-09 07:53:00
4:53 AM,79.0,70.0,74,29.82,10.0,ENE,15.0,27.6,N/A,,Overcast,60,2011-10-09 08:53:00
5:53 AM,77.0,71.1,82,29.82,9.0,ENE,16.1,28.8,0.00,Rain,Light Rain,60,2011-10-09 09:53:00
6:41 AM,78.8,71.6,78,29.82,10.0,ENE,19.6,32.2,0.00,Rain,Light Rain,60,2011-10-09 10:41:00
6:53 AM,78.1,70.0,76,29.83,10.0,ENE,18.4,28.8,0.00,,Overcast,70,2011-10-09 10:53:00
7:01 AM,78.8,69.8,74,29.82,10.0,ENE,21.9,27.6,N/A,,Overcast,70,2011-10-09 11:01:00
7:11 AM,78.8,69.8,74,29.83,10.0,ENE,19.6,29.9,N/A,,Overcast,60,2011-10-09 11:11:00
7:53 AM,79.0,70.0,74,29.83,10.0,ENE,18.4,27.6,N/A,,Mostly Cloudy,60,2011-10-09 11:53:00
8:53 AM,78.1,72.0,81,29.83,10.0,ENE,27.6,33.4,0.00,,Overcast,60,2011-10-09 12:53:00
9:00 AM,78.8,71.6,78,29.82,9.0,ENE,19.6,33.4,N/A,,Overcast,60,2011-10-09 13:00:00
9:53 AM,79.0,73.0,82,29.83,6.0,NE,18.4,31.1,0.01,Rain,Light Rain,50,2011-10-09 13:53:00
10:53 AM,80.1,72.0,76,29.84,9.0,NE,21.9,34.5,0.00,,Mostly Cloudy,50,2011-10-09 14:53:00
11:53 AM,80.1,72.0,76,29.84,10.0,NE,21.9,31.1,0.00,,Mostly Cloudy,40,2011-10-09 15:53:00
12:53 PM,81.0,72.0,74,29.81,10.0,NNE,16.1,29.9,0.00,,Overcast,30,2011-10-09 16:53:00
1:22 PM,80.6,71.6,74,29.80,10.0,NNE,21.9,28.8,N/A,,Overcast,30,2011-10-09 17:22:00
1:53 PM,81.0,70.0,69,29.80,10.0,NE,18.4,28.8,N/A,,Overcast,40,2011-10-09 17:53:00
2:53 PM,82.0,70.0,67,29.78,10.0,NE,19.6,24.2,N/A,,Mostly Cloudy,40,2011-10-09 18:53:00
3:53 PM,84.0,69.1,61,29.77,10.0,NNE,11.5,-,N/A,,Scattered Clouds,30,2011-10-09 19:53:00
4:53 PM,82.9,70.0,65,29.76,10.0,NNW,10.4,-,N/A,,Overcast,340,2011-10-09 20:53:00
5:53 PM,82.9,69.1,63,29.76,10.0,NW,6.9,-,N/A,,Scattered Clouds,310,2011-10-09 21:53:00
6:53 PM,80.1,68.0,67,29.76,10.0,West,3.5,-,N/A,,Scattered Clouds,280,2011-10-09 22:53:00
7:53 PM,79.0,69.1,72,29.78,10.0,NW,4.6,-,N/A,,Mostly Cloudy,320,2011-10-09 23:53:00
8:53 PM,79.0,68.0,69,29.81,10.0,NNW,6.9,-,N/A,,Overcast,340,2011-10-10 00:53:00
9:53 PM,77.0,69.1,76,29.82,10.0,North,4.6,-,N/A,,Scattered Clouds,350,2011-10-10 01:53:00
10:53 PM,77.0,69.1,76,29.82,10.0,Calm,Calm,-,N/A,,Overcast,0,2011-10-10 02:53:00
11:53 PM,75.9,69.1,79,29.82,10.0,Calm,Calm,-,N/A,,Clear,0,2011-10-10 03:53:00